Regional Weather Roundup
Issued by NWS

Home | Current Version | Previous Version | Text Only | Print | Product List | Glossary Off
Versions: 1 2 3 4 5 6 7 8 9 10 11 12 13 14 15 16 17 18 19 20 21 22 23 24 25 26 27 28 29 30 31 32 33 34 35 36 37 38 39 40 41 42 43 44 45 46 47 48 49 50

000
ASUS43 KFSD 200902
RWRSD

WEATHER ROUNDUP FOR SOUTH DAKOTA
NATIONAL WEATHER SERVICE SIOUX FALLS SD
300 AM CST TUE FEB 20 2018

NOTE: "FAIR" INDICATES FEW OR NO CLOUDS BELOW 12,000 FEET WITH NO
SIGNIFICANT WEATHER AND/OR OBSTRUCTIONS TO VISIBILITY.


SDZ001>005-009-010-012>017-201000-
NORTHWEST AND NORTH CENTRAL SOUTH DAKOTA

CITY           SKY/WX    TMP DP  RH WIND       PRES   REMARKS
BUFFALO          N/A      0  -6  76 NW8       29.93F WCI -14
FAITH            N/A      0  -3  87 N15       30.01F WCI -19
MOBRIDGE       CLOUDY     4  -2  76 N12       30.03R WCI -12
$$

SDZ012>016-024>037-041>051-057-063-072>074-201000-
SOUTHWEST AND SOUTH CENTRAL SOUTH DAKOTA

CITY           SKY/WX    TMP DP  RH WIND       PRES   REMARKS
RAPID CTY ARPT LGT SNOW  -2  -6  83 N14       29.98S FOG     WCI -21
PIERRE         LGT SNOW   3   0  87 N14       30.03S FOG     WCI -15
CUSTER         LGT SNOW  -5 -11  75 CALM      29.70S
ELLSWORTH AFB  LGT SNOW  -1  -5  85 N12       29.97R FOG     WCI -19
PHILIP         FLURRIES   2  -2  83 NW17      30.05R WCI -18
PINE RIDGE     CLOUDY     0  -5  79 NW7       29.98R WCI -13
SPEARFISH      LGT SNOW  -4  -9  77 W7        29.94R WCI -18
WINNER         MIX PCPN   4  -1  80 N14       29.98S WCI -14
$$

SDZ004>011-016>023-039-040-201000-
NORTHEAST SOUTH DAKOTA

CITY           SKY/WX    TMP DP  RH WIND       PRES   REMARKS
ABERDEEN       LGT SNOW   4   0  83 N15       30.04R FOG     WCI -14
WATERTOWN      LGT SNOW   5   2  87 N12       29.92S VSB 3/4 WCI -11
BROOKINGS      LGT SNOW   6   3  87 N12       29.91F VSB 3/4 WCI  -9
SISSETON         N/A      5   2  87 N16       29.99R WCI -14
$$

SDZ017-020-022-023-036>040-048>070-201000-
SOUTHEAST SOUTH DAKOTA

CITY           SKY/WX    TMP DP  RH WIND       PRES   REMARKS
SIOUX FALLS    FOG       10   6  84 N14       29.92F VSB 1   WCI  -6
HURON          LGT SNOW   4   1  88 N16       29.99F FOG     WCI -15
CHAMBERLAIN      N/A      4   1  85 NW12      30.00F WCI -12
MITCHELL       LGT SNOW   6   2  83 N17       29.98F FOG     WCI -13
YANKTON        LGT SNOW  11   7  84 NW15      29.94F FOG     WCI  -5
$$

ABBREVIATIONS USED IN REMARKS
   TC - TEMPERATURE IN CELSIUS
  WCI - WIND CHILL INDEX
   HX - HEAT INDEX
  VSB - VISIBILITY





USA.gov is the U.S. government's official web portal to all federal, state and local government web resources and services.